| time (UTC) | temp F | wind direction | speed MPH | gust MPH | rain 1hr in | rain 24hr in | rain mn in | humidity % | barometer mb |
| 20260904141428 | 85 | 207 | 0.0 | 0.0 | 0.00 | 0.00 | 0.00 | 71 | 1020.6 |
| 20260904140928 | 85 | 218 | 0.0 | 0.0 | 0.00 | 0.00 | 0.00 | 72 | 1020.7 |
| 20260904140431 | 84 | 226 | 0.0 | 0.0 | 0.00 | 0.00 | 0.00 | 72 | 1020.6 |
| 20260904135931 | 84 | 264 | 0.0 | 0.0 | 0.00 | 0.00 | 0.00 | 71 | 1020.7 |
| 20260904135428 | 85 | 231 | 0.0 | 0.0 | 0.00 | 0.00 | 0.00 | 69 | 1020.7 |
| 20260904134928 | 85 | 210 | 0.0 | 0.0 | 0.00 | 0.00 | 0.00 | 68 | 1020.7 |
| 20260904134428 | 86 | 231 | 0.0 | 0.0 | 0.00 | 0.00 | 0.00 | 68 | 1020.7 |
| 20260904133931 | 85 | 193 | 0.0 | 0.0 | 0.00 | 0.00 | 0.00 | 67 | 1020.6 |
| 20260904133428 | 85 | 188 | 0.0 | 0.0 | 0.00 | 0.00 | 0.00 | 70 | 1020.5 |
| 20260904132928 | 85 | 228 | 0.0 | 0.0 | 0.00 | 0.00 | 0.00 | 67 | 1020.6 |
| 20260904132428 | 85 | 291 | 0.0 | 0.0 | 0.00 | 0.00 | 0.00 | 69 | 1020.6 |
| 20260904131931 | 85 | 244 | 0.0 | 0.0 | 0.00 | 0.00 | 0.00 | 71 | 1020.6 |
| 20260904131428 | 84 | 127 | 0.0 | 0.0 | 0.00 | 0.00 | 0.00 | 73 | 1020.6 |
| 20260904130931 | 84 | 219 | 0.0 | 0.0 | 0.00 | 0.00 | 0.00 | 72 | 1020.6 |
| 20260904130428 | 84 | 249 | 0.0 | 0.0 | 0.00 | 0.00 | 0.00 | 72 | 1020.7 |
| 20260904125928 | 84 | 205 | 0.0 | 0.0 | 0.00 | 0.00 | 0.00 | 72 | 1020.8 |
| 20260904125428 | 84 | 251 | 0.0 | 0.0 | 0.00 | 0.00 | 0.00 | 72 | 1020.8 |
| 20260904124931 | 84 | 199 | 0.0 | 0.0 | 0.00 | 0.00 | 0.00 | 72 | 1020.7 |
| 20260904124428 | 84 | 271 | 0.0 | 0.0 | 0.00 | 0.00 | 0.00 | 72 | 1020.8 |
| 20260904123931 | 83 | 235 | 0.0 | 0.0 | 0.00 | 0.00 | 0.00 | 74 | 1020.9 |
| 20260904123428 | 83 | 220 | 0.0 | 0.0 | 0.00 | 0.00 | 0.00 | 75 | 1020.9 |
| 20260904122937 | 83 | 95 | 0.0 | 0.0 | 0.00 | 0.00 | 0.00 | 73 | 1021.0 |
| 20260904122428 | 84 | 228 | 0.0 | 0.0 | 0.00 | 0.00 | 0.00 | 75 | 1021.0 |
| 20260904121931 | 84 | 235 | 0.0 | 0.0 | 0.00 | 0.00 | 0.00 | 73 | 1021.0 |
| 20260904121434 | 84 | 216 | 0.0 | 0.0 | 0.00 | 0.00 | 0.00 | 75 | 1021.1 |
| 20260904120928 | 84 | 225 | 0.0 | 0.0 | 0.00 | 0.00 | 0.00 | 75 | 1021.0 |
| 20260904120428 | 84 | 253 | 0.0 | 0.0 | 0.00 | 0.00 | 0.00 | 76 | 1021.1 |
| 20260904115931 | 84 | 194 | 0.0 | 0.0 | 0.00 | 0.00 | 0.00 | 73 | 1021.0 |
| 20260904115434 | 84 | 206 | 0.0 | 0.0 | 0.00 | 0.00 | 0.00 | 72 | 1021.0 |
| 20260904114928 | 84 | 243 | 0.0 | 0.0 | 0.00 | 0.00 | 0.00 | 70 | 1021.0 |
| 20260904114434 | 84 | 251 | 0.0 | 0.0 | 0.00 | 0.00 | 0.00 | 72 | 1021.1 |
| 20260904113928 | 84 | 222 | 0.0 | 0.0 | 0.00 | 0.00 | 0.00 | 71 | 1021.1 |
| 20260904113431 | 84 | 211 | 0.0 | 0.0 | 0.00 | 0.00 | 0.00 | 69 | 1021.1 |
| 20260904112934 | 84 | 231 | 0.0 | 0.0 | 0.00 | 0.00 | 0.00 | 73 | 1021.1 |
| 20260904112428 | 84 | 214 | 0.0 | 0.0 | 0.00 | 0.00 | 0.00 | 72 | 1021.2 |
| 20260904111931 | 84 | 233 | 0.0 | 0.0 | 0.00 | 0.00 | 0.00 | 73 | 1021.2 |
| 20260904111428 | 84 | 199 | 0.0 | 0.0 | 0.00 | 0.00 | 0.00 | 74 | 1021.2 |
| 20260904110928 | 84 | 211 | 0.0 | 0.0 | 0.00 | 0.00 | 0.00 | 73 | 1021.2 |
| 20260904110431 | 84 | 187 | 0.0 | 0.0 | 0.00 | 0.00 | 0.00 | 74 | 1021.2 |
| 20260904105931 | 84 | 222 | 0.0 | 0.0 | 0.00 | 0.00 | 0.00 | 74 | 1021.2 |
| 20260904105428 | 83 | 210 | 0.0 | 0.0 | 0.00 | 0.00 | 0.00 | 74 | 1021.2 |
| 20260904104934 | 83 | 229 | 0.0 | 0.0 | 0.00 | 0.00 | 0.00 | 75 | 1021.2 |
| 20260904104428 | 83 | 172 | 0.0 | 0.0 | 0.00 | 0.00 | 0.00 | 75 | 1021.2 |
| 20260904103928 | 83 | 226 | 0.0 | 0.0 | 0.00 | 0.00 | 0.00 | 74 | 1021.3 |
| 20260904103431 | 83 | 178 | 0.0 | 0.0 | 0.00 | 0.00 | 0.00 | 74 | 1021.3 |
| 20260904102928 | 83 | 233 | 0.0 | 0.0 | 0.00 | 0.00 | 0.00 | 71 | 1021.2 |
| 20260904102428 | 84 | 245 | 0.0 | 0.0 | 0.00 | 0.00 | 0.00 | 71 | 1021.2 |
| 20260904101928 | 84 | 211 | 0.0 | 0.0 | 0.00 | 0.00 | 0.00 | 72 | 1021.2 |
| 20260904101428 | 84 | 237 | 0.0 | 0.0 | 0.00 | 0.00 | 0.00 | 69 | 1021.4 |
| 20260904100934 | 84 | 241 | 0.0 | 0.0 | 0.00 | 0.00 | 0.00 | 70 | 1021.3 |
| 20260904100428 | 84 | 208 | 0.0 | 0.0 | 0.00 | 0.00 | 0.00 | 70 | 1021.3 |
| 20260904095928 | 84 | 228 | 0.0 | 0.0 | 0.00 | 0.00 | 0.00 | 69 | 1021.4 |
| 20260904095428 | 84 | 200 | 0.0 | 0.0 | 0.00 | 0.00 | 0.00 | 69 | 1021.4 |
| 20260904094931 | 84 | 209 | 0.0 | 0.0 | 0.00 | 0.00 | 0.00 | 68 | 1021.4 |
| 20260904094428 | 84 | 210 | 0.0 | 0.0 | 0.00 | 0.00 | 0.00 | 70 | 1021.5 |
| 20260904093931 | 84 | 241 | 0.0 | 0.0 | 0.00 | 0.00 | 0.00 | 68 | 1021.5 |
| 20260904093428 | 84 | 241 | 0.0 | 0.0 | 0.00 | 0.00 | 0.00 | 69 | 1021.5 |
| 20260904092928 | 85 | 260 | 0.0 | 0.0 | 0.00 | 0.00 | 0.00 | 69 | 1021.5 |
| 20260904092428 | 85 | 212 | 0.0 | 0.0 | 0.00 | 0.00 | 0.00 | 69 | 1021.5 |
| 20260904091931 | 85 | 210 | 0.0 | 0.0 | 0.00 | 0.00 | 0.00 | 66 | 1021.5 |
| 20260904091434 | 85 | 157 | 0.0 | 0.0 | 0.00 | 0.00 | 0.00 | 64 | 1021.5 |
| 20260904090928 | 85 | 204 | 0.0 | 0.0 | 0.00 | 0.00 | 0.00 | 65 | 1021.5 |
| 20260904090431 | 85 | 204 | 0.0 | 0.0 | 0.00 | 0.00 | 0.00 | 63 | 1021.4 |
| 20260904085934 | 85 | 236 | 0.0 | 0.0 | 0.00 | 0.00 | 0.00 | 64 | 1021.4 |
| 20260904085428 | 85 | 226 | 0.0 | 0.0 | 0.00 | 0.00 | 0.00 | 64 | 1021.3 |
| 20260904084931 | 85 | 212 | 0.0 | 0.0 | 0.00 | 0.00 | 0.00 | 63 | 1021.3 |
| 20260904084431 | 84 | 199 | 0.0 | 0.0 | 0.00 | 0.00 | 0.00 | 62 | 1021.2 |
| 20260904083928 | 84 | 190 | 0.0 | 0.0 | 0.00 | 0.00 | 0.00 | 62 | 1021.1 |
| 20260904083428 | 84 | 238 | 0.0 | 0.0 | 0.00 | 0.00 | 0.00 | 63 | 1021.1 |
| 20260904082931 | 84 | 262 | 0.0 | 0.0 | 0.00 | 0.00 | 0.00 | 62 | 1021.1 |
| 20260904082434 | 84 | 262 | 0.0 | 0.0 | 0.00 | 0.00 | 0.00 | 62 | 1021.1 |
| 20260904081937 | 84 | 29 | 0.0 | 0.0 | 0.00 | 0.00 | 0.00 | 60 | 1021.1 |
| 20260904081431 | 85 | 148 | 0.0 | 0.0 | 0.00 | 0.00 | 0.00 | 59 | 1021.2 |
| 20260904080931 | 85 | 136 | 0.0 | 0.0 | 0.00 | 0.00 | 0.00 | 57 | 1021.1 |
| 20260904080431 | 85 | 142 | 0.0 | 0.0 | 0.00 | 0.00 | 0.00 | 54 | 1021.0 |
| 20260904075928 | 84 | 103 | 0.0 | 0.0 | 0.00 | 0.00 | 0.00 | 52 | 1021.1 |
| 20260904075434 | 84 | 102 | 0.0 | 0.0 | 0.00 | 0.00 | 0.00 | 52 | 1020.9 |
| 20260904074928 | 84 | 110 | 0.0 | 0.0 | 0.00 | 0.00 | 0.00 | 50 | 1020.9 |
| 20260904074431 | 85 | 120 | 0.0 | 0.0 | 0.00 | 0.00 | 0.00 | 51 | 1020.9 |
| 20260904073931 | 85 | 95 | 0.0 | 0.0 | 0.00 | 0.00 | 0.00 | 51 | 1020.8 |
| 20260904073434 | 85 | 91 | 0.0 | 0.0 | 0.00 | 0.00 | 0.00 | 52 | 1020.8 |
| 20260904072929 | 85 | 91 | 0.0 | 0.0 | 0.00 | 0.00 | 0.00 | 53 | 1020.8 |
| 20260904072428 | 84 | 91 | 0.0 | 0.0 | 0.00 | 0.00 | 0.00 | 55 | 1020.8 |
| 20260904071928 | 83 | 91 | 0.0 | 0.0 | 0.00 | 0.00 | 0.00 | 56 | 1020.9 |
| 20260904071428 | 82 | 92 | 0.0 | 0.0 | 0.00 | 0.00 | 0.00 | 57 | 1020.8 |
| 20260904070928 | 81 | 93 | 0.0 | 0.0 | 0.00 | 0.00 | 0.00 | 56 | 1020.8 |
| 20260904070431 | 80 | 91 | 0.0 | 0.0 | 0.00 | 0.00 | 0.00 | 57 | 1020.8 |
| 20260904065928 | 80 | 91 | 0.0 | 0.0 | 0.00 | 0.00 | 0.00 | 58 | 1020.8 |
| 20260904065431 | 79 | 95 | 0.0 | 0.0 | 0.00 | 0.00 | 0.00 | 58 | 1020.7 |
| 20260904064934 | 79 | 95 | 0.0 | 0.0 | 0.00 | 0.00 | 0.00 | 58 | 1020.7 |
| 20260904064428 | 79 | 94 | 0.0 | 0.0 | 0.00 | 0.00 | 0.00 | 58 | 1020.7 |
| 20260904063928 | 79 | 101 | 0.0 | 0.0 | 0.00 | 0.00 | 0.00 | 58 | 1020.7 |
| 20260904063431 | 78 | 96 | 0.0 | 0.0 | 0.00 | 0.00 | 0.00 | 58 | 1020.7 |
| 20260904062934 | 78 | 97 | 0.0 | 0.0 | 0.00 | 0.00 | 0.00 | 58 | 1020.6 |
| 20260904062431 | 78 | 115 | 0.0 | 0.0 | 0.00 | 0.00 | 0.00 | 58 | 1020.6 |
| 20260904061931 | 78 | 119 | 0.0 | 0.0 | 0.00 | 0.00 | 0.00 | 59 | 1020.6 |
| 20260904061434 | 78 | 114 | 0.0 | 0.0 | 0.00 | 0.00 | 0.00 | 58 | 1020.5 |
| 20260904060928 | 78 | 113 | 0.0 | 0.0 | 0.00 | 0.00 | 0.00 | 58 | 1020.4 |
| 20260904060431 | 78 | 39 | 0.0 | 0.0 | 0.00 | 0.00 | 0.00 | 58 | 1020.3 |
| 20260904055931 | 78 | 117 | 0.0 | 0.0 | 0.00 | 0.00 | 0.00 | 58 | 1020.3 |
| 20260904055428 | 78 | 122 | 0.0 | 0.0 | 0.00 | 0.00 | 0.00 | 58 | 1020.4 |
| 20260904054931 | 78 | 42 | 0.0 | 0.0 | 0.00 | 0.00 | 0.00 | 58 | 1020.4 |
| 20260904054434 | 77 | 57 | 0.0 | 0.0 | 0.00 | 0.00 | 0.00 | 57 | 1020.5 |
| 20260904053929 | 77 | 70 | 0.0 | 0.0 | 0.00 | 0.00 | 0.00 | 57 | 1020.4 |
| 20260904053431 | 77 | 52 | 0.0 | 0.0 | 0.00 | 0.00 | 0.00 | 57 | 1020.4 |
| 20260904052929 | 77 | 29 | 0.0 | 0.0 | 0.00 | 0.00 | 0.00 | 56 | 1020.4 |
| 20260904052428 | 78 | 76 | 0.0 | 0.0 | 0.00 | 0.00 | 0.00 | 56 | 1020.4 |
| 20260904051929 | 78 | 114 | 0.0 | 0.0 | 0.00 | 0.00 | 0.00 | 56 | 1020.4 |
| 20260904051428 | 78 | 92 | 0.0 | 0.0 | 0.00 | 0.00 | 0.00 | 56 | 1020.3 |
| 20260904050928 | 77 | 81 | 0.0 | 0.0 | 0.00 | 0.00 | 0.00 | 57 | 1020.4 |
| 20260904050434 | 77 | 62 | 0.0 | 0.0 | 0.00 | 0.00 | 0.00 | 58 | 1020.4 |
| 20260904045938 | 77 | 72 | 0.0 | 0.0 | 0.00 | 0.00 | 0.00 | 58 | 1020.4 |
| 20260904045429 | 77 | 94 | 0.0 | 0.0 | 0.00 | 0.00 | 0.00 | 59 | 1020.3 |
| 20260904044928 | 77 | 95 | 0.0 | 0.0 | 0.00 | 0.00 | 0.00 | 60 | 1020.2 |
| 20260904044432 | 77 | 93 | 0.0 | 0.0 | 0.00 | 0.00 | 0.00 | 60 | 1020.2 |
| 20260904043932 | 78 | 86 | 0.0 | 0.0 | 0.00 | 0.00 | 0.00 | 60 | 1020.2 |
| 20260904043432 | 78 | 85 | 0.0 | 0.0 | 0.00 | 0.00 | 0.00 | 59 | 1020.2 |
| 20260904042935 | 78 | 86 | 0.0 | 0.0 | 0.00 | 0.00 | 0.00 | 57 | 1020.1 |
| 20260904042432 | 78 | 87 | 0.0 | 0.0 | 0.00 | 0.00 | 0.00 | 56 | 1020.1 |
| 20260904041929 | 78 | 88 | 0.0 | 0.0 | 0.00 | 0.00 | 0.00 | 57 | 1020.1 |
| 20260904041432 | 78 | 87 | 0.0 | 0.0 | 0.00 | 0.00 | 0.00 | 57 | 1020.1 |
| 20260904040929 | 78 | 97 | 0.0 | 0.0 | 0.00 | 0.00 | 0.00 | 58 | 1020.1 |
| 20260904040435 | 77 | 79 | 0.0 | 0.0 | 0.00 | 0.00 | 0.00 | 58 | 1020.0 |
| 20260904035932 | 78 | 68 | 0.0 | 0.0 | 0.00 | 0.00 | 0.00 | 59 | 1020.1 |
| 20260904035429 | 78 | 68 | 0.0 | 0.0 | 0.00 | 0.00 | 0.00 | 58 | 1020.0 |
| 20260904034929 | 78 | 70 | 0.0 | 0.0 | 0.00 | 0.00 | 0.00 | 57 | 1020.1 |
| 20260904034432 | 78 | 71 | 0.0 | 0.0 | 0.00 | 0.00 | 0.00 | 57 | 1020.1 |
| 20260904033935 | 78 | 74 | 0.0 | 0.0 | 0.00 | 0.00 | 0.00 | 56 | 1020.1 |
| 20260904033429 | 78 | 50 | 0.0 | 0.0 | 0.00 | 0.00 | 0.00 | 56 | 1020.1 |
| 20260904032932 | 78 | 25 | 0.0 | 0.0 | 0.00 | 0.00 | 0.00 | 57 | 1020.1 |
| 20260904032435 | 78 | 66 | 0.0 | 0.0 | 0.00 | 0.00 | 0.00 | 56 | 1019.9 |
| 20260904031932 | 78 | 359 | 0.0 | 0.0 | 0.00 | 0.00 | 0.00 | 56 | 1019.9 |
| 20260904031429 | 77 | 91 | 0.0 | 0.0 | 0.00 | 0.00 | 0.00 | 56 | 1020.0 |
| 20260904030929 | 77 | 91 | 0.0 | 0.0 | 0.00 | 0.00 | 0.00 | 56 | 1019.9 |
| 20260904030432 | 77 | 57 | 0.0 | 0.0 | 0.00 | 0.00 | 0.00 | 56 | 1019.9 |
| 20260904025932 | 77 | 53 | 0.0 | 0.0 | 0.00 | 0.00 | 0.00 | 56 | 1019.9 |
| 20260904025438 | 77 | 52 | 0.0 | 0.0 | 0.00 | 0.00 | 0.00 | 56 | 1019.9 |
| 20260904024929 | 77 | 54 | 0.0 | 0.0 | 0.00 | 0.00 | 0.00 | 56 | 1019.9 |
| 20260904024429 | 78 | 50 | 0.0 | 0.0 | 0.00 | 0.00 | 0.00 | 56 | 1020.0 |
| 20260904023932 | 78 | 51 | 0.0 | 0.0 | 0.00 | 0.00 | 0.00 | 56 | 1020.0 |
| 20260904023432 | 78 | 51 | 0.0 | 0.0 | 0.00 | 0.00 | 0.00 | 56 | 1019.9 |
| 20260904022929 | 78 | 52 | 0.0 | 0.0 | 0.00 | 0.00 | 0.00 | 56 | 1019.9 |
| 20260904022429 | 78 | 51 | 0.0 | 0.0 | 0.00 | 0.00 | 0.00 | 54 | 1019.9 |
| 20260904021938 | 78 | 52 | 0.0 | 0.0 | 0.00 | 0.00 | 0.00 | 55 | 1019.9 |
| 20260904021429 | 78 | 53 | 0.0 | 0.0 | 0.00 | 0.00 | 0.00 | 55 | 1019.9 |
| 20260904020929 | 78 | 336 | 0.0 | 0.0 | 0.00 | 0.00 | 0.00 | 56 | 1020.0 |
| 20260904020430 | 79 | 289 | 0.0 | 0.0 | 0.00 | 0.00 | 0.00 | 56 | 1019.9 |
| 20260904015930 | 79 | 289 | 0.0 | 0.0 | 0.00 | 0.00 | 0.00 | 55 | 1020.0 |
| 20260904015427 | 79 | 289 | 0.0 | 0.0 | 0.00 | 0.00 | 0.00 | 55 | 1020.0 |
| 20260904014927 | 79 | 25 | 0.0 | 0.0 | 0.00 | 0.00 | 0.00 | 51 | 1019.9 |
| 20260904014430 | 79 | 110 | 0.0 | 0.0 | 0.00 | 0.00 | 0.00 | 51 | 1019.9 |
| 20260904013927 | 79 | 43 | 0.0 | 0.0 | 0.00 | 0.00 | 0.00 | 53 | 1019.9 |
| 20260904013427 | 79 | 64 | 0.0 | 0.0 | 0.00 | 0.00 | 0.00 | 52 | 1019.9 |
| 20260904012927 | 78 | 79 | 0.0 | 0.0 | 0.00 | 0.00 | 0.00 | 54 | 1019.9 |
| 20260904012427 | 78 | 56 | 0.0 | 0.0 | 0.00 | 0.00 | 0.00 | 57 | 1019.9 |
| 20260904011930 | 78 | 359 | 0.0 | 0.0 | 0.00 | 0.00 | 0.00 | 60 | 1020.0 |
| 20260904011430 | 78 | 359 | 0.0 | 0.0 | 0.00 | 0.00 | 0.00 | 59 | 1020.0 |
| 20260904010936 | 78 | 359 | 0.0 | 0.0 | 0.00 | 0.00 | 0.00 | 61 | 1020.0 |
| 20260904010427 | 79 | 359 | 0.0 | 0.0 | 0.00 | 0.00 | 0.00 | 61 | 1020.1 |
| 20260904005927 | 79 | 359 | 0.0 | 0.0 | 0.00 | 0.00 | 0.00 | 59 | 1020.0 |
| 20260904005430 | 79 | 359 | 0.0 | 0.0 | 0.00 | 0.00 | 0.00 | 59 | 1020.0 |
| 20260904004933 | 79 | 359 | 0.0 | 0.0 | 0.00 | 0.00 | 0.00 | 57 | 1020.0 |
| 20260904004436 | 79 | 359 | 0.0 | 0.0 | 0.00 | 0.00 | 0.00 | 56 | 1020.0 |
| 20260904003927 | 79 | 359 | 0.0 | 0.0 | 0.00 | 0.00 | 0.00 | 56 | 1020.0 |
| 20260904003430 | 79 | 359 | 0.0 | 0.0 | 0.00 | 0.00 | 0.00 | 60 | 1020.0 |
| 20260904002927 | 79 | 359 | 0.0 | 0.0 | 0.00 | 0.00 | 0.00 | 59 | 1020.0 |
| 20260904002427 | 79 | 359 | 0.0 | 0.0 | 0.00 | 0.00 | 0.00 | 56 | 1020.1 |
| 20260904001930 | 79 | 359 | 0.0 | 0.0 | 0.00 | 0.00 | 0.00 | 56 | 1020.1 |
| 20260904001433 | 79 | 359 | 0.0 | 0.0 | 0.00 | 0.00 | 0.00 | 58 | 1020.1 |
| 20260904000933 | 79 | 359 | 0.0 | 0.0 | 0.00 | 0.00 | 0.00 | 59 | 1020.2 |
| 20260904000432 | 79 | 359 | 0.0 | 0.0 | 0.00 | 0.00 | 0.00 | 57 | 1020.2 |
| 20260903235927 | 79 | 99 | 0.0 | 0.0 | 0.00 | 0.00 | 0.00 | 58 | 1020.2 |
| 20260903235427 | 79 | 93 | 0.0 | 0.0 | 0.00 | 0.00 | 0.00 | 57 | 1020.2 |
| 20260903234933 | 79 | 102 | 0.0 | 0.0 | 0.00 | 0.00 | 0.00 | 58 | 1020.1 |
| 20260903234427 | 79 | 97 | 0.0 | 0.0 | 0.00 | 0.00 | 0.00 | 59 | 1020.1 |
| 20260903233927 | 79 | 94 | 0.0 | 0.0 | 0.00 | 0.00 | 0.00 | 59 | 1020.0 |
| 20260903233427 | 80 | 90 | 0.0 | 0.0 | 0.00 | 0.00 | 0.00 | 60 | 1020.0 |
| 20260903232927 | 80 | 90 | 0.0 | 0.0 | 0.00 | 0.00 | 0.00 | 60 | 1020.0 |
| 20260903232430 | 80 | 97 | 0.0 | 0.0 | 0.00 | 0.00 | 0.00 | 59 | 1020.0 |
| 20260903231927 | 80 | 102 | 0.0 | 0.0 | 0.00 | 0.00 | 0.00 | 60 | 1020.0 |
| 20260903231427 | 79 | 83 | 0.0 | 0.0 | 0.00 | 0.00 | 0.00 | 61 | 1020.0 |
| 20260903230933 | 79 | 75 | 0.0 | 0.0 | 0.00 | 0.00 | 0.00 | 63 | 1020.1 |
| 20260903230427 | 80 | 95 | 0.0 | 0.0 | 0.00 | 0.00 | 0.00 | 64 | 1020.1 |
| 20260903225927 | 80 | 81 | 0.0 | 0.0 | 0.00 | 0.00 | 0.00 | 64 | 1020.2 |
| 20260903225430 | 80 | 87 | 0.0 | 0.0 | 0.00 | 0.00 | 0.00 | 63 | 1020.2 |
| 20260903224927 | 80 | 85 | 0.0 | 0.0 | 0.00 | 0.00 | 0.00 | 64 | 1020.1 |
| 20260903224427 | 80 | 121 | 0.0 | 0.0 | 0.00 | 0.00 | 0.00 | 64 | 1020.1 |
| 20260903223930 | 80 | 58 | 0.0 | 0.0 | 0.00 | 0.00 | 0.00 | 64 | 1020.1 |
| 20260903223427 | 80 | 53 | 0.0 | 0.0 | 0.00 | 0.00 | 0.00 | 65 | 1020.1 |
| 20260903222930 | 80 | 49 | 0.0 | 0.0 | 0.00 | 0.00 | 0.00 | 65 | 1020.1 |
| 20260903222433 | 80 | 45 | 0.0 | 0.0 | 0.00 | 0.00 | 0.00 | 66 | 1020.1 |
| 20260903221927 | 80 | 45 | 0.0 | 0.0 | 0.00 | 0.00 | 0.00 | 66 | 1020.1 |
| 20260903221430 | 80 | 45 | 0.0 | 0.0 | 0.00 | 0.00 | 0.00 | 66 | 1020.1 |
| 20260903220927 | 80 | 108 | 0.0 | 0.0 | 0.00 | 0.00 | 0.00 | 67 | 1020.1 |
| 20260903220427 | 80 | 87 | 0.0 | 0.0 | 0.00 | 0.00 | 0.00 | 67 | 1020.1 |
| 20260903215927 | 80 | 86 | 0.0 | 0.0 | 0.00 | 0.00 | 0.00 | 68 | 1020.2 |
| 20260903215427 | 79 | 115 | 0.0 | 0.0 | 0.00 | 0.00 | 0.00 | 69 | 1020.3 |
| 20260903214927 | 79 | 115 | 0.0 | 0.0 | 0.00 | 0.00 | 0.00 | 69 | 1020.1 |
| 20260903214427 | 79 | 119 | 0.0 | 0.0 | 0.00 | 0.00 | 0.00 | 70 | 1020.1 |
| 20260903213927 | 79 | 116 | 0.0 | 0.0 | 0.00 | 0.00 | 0.00 | 70 | 1020.1 |
| 20260903213433 | 80 | 115 | 0.0 | 0.0 | 0.00 | 0.00 | 0.00 | 70 | 1020.1 |
| 20260903212936 | 80 | 106 | 0.0 | 0.0 | 0.00 | 0.00 | 0.00 | 71 | 1020.2 |
| 20260903212427 | 80 | 104 | 0.0 | 0.0 | 0.00 | 0.00 | 0.00 | 71 | 1020.1 |
| 20260903211927 | 80 | 101 | 0.0 | 0.0 | 0.00 | 0.00 | 0.00 | 71 | 1020.2 |
| 20260903211427 | 80 | 29 | 0.0 | 0.0 | 0.00 | 0.00 | 0.00 | 71 | 1020.1 |
| 20260903210933 | 80 | 48 | 0.0 | 0.0 | 0.00 | 0.00 | 0.00 | 70 | 1020.2 |
| 20260903210436 | 80 | 39 | 0.0 | 0.0 | 0.00 | 0.00 | 0.00 | 71 | 1020.1 |
| 20260903205927 | 80 | 39 | 0.0 | 0.0 | 0.00 | 0.00 | 0.00 | 71 | 1020.1 |
| 20260903205427 | 80 | 25 | 0.0 | 0.0 | 0.00 | 0.00 | 0.00 | 71 | 1020.0 |
| 20260903204933 | 80 | 26 | 0.0 | 0.0 | 0.00 | 0.00 | 0.00 | 72 | 1020.0 |
| 20260903204427 | 80 | 35 | 0.0 | 0.0 | 0.00 | 0.00 | 0.00 | 72 | 1020.1 |
| 20260903203930 | 80 | 343 | 0.0 | 0.0 | 0.00 | 0.00 | 0.00 | 72 | 1020.1 |
| 20260903203433 | 80 | 337 | 0.0 | 0.0 | 0.00 | 0.00 | 0.00 | 71 | 1020.1 |
| 20260903202933 | 80 | 89 | 0.0 | 0.0 | 0.00 | 0.00 | 0.00 | 71 | 1020.1 |
| 20260903202427 | 80 | 35 | 0.0 | 0.0 | 0.00 | 0.00 | 0.00 | 72 | 1020.0 |
| 20260903201927 | 80 | 35 | 0.0 | 0.0 | 0.00 | 0.00 | 0.00 | 72 | 1020.0 |
| 20260903201427 | 81 | 35 | 0.0 | 0.0 | 0.00 | 0.00 | 0.00 | 72 | 1020.0 |
| 20260903200933 | 80 | 81 | 0.0 | 0.0 | 0.00 | 0.00 | 0.00 | 73 | 1020.1 |
| 20260903200427 | 81 | 85 | 0.0 | 0.0 | 0.00 | 0.00 | 0.00 | 73 | 1020.1 |
| 20260903195927 | 81 | 90 | 0.0 | 0.0 | 0.00 | 0.00 | 0.00 | 72 | 1020.1 |
| 20260903195430 | 81 | 97 | 0.0 | 0.0 | 0.00 | 0.00 | 0.00 | 72 | 1020.0 |
| 20260903194930 | 81 | 112 | 0.0 | 0.0 | 0.00 | 0.00 | 0.00 | 72 | 1020.0 |
| 20260903194427 | 81 | 98 | 0.0 | 0.0 | 0.00 | 0.00 | 0.00 | 72 | 1020.1 |
| 20260903193930 | 81 | 82 | 0.0 | 0.0 | 0.00 | 0.00 | 0.00 | 72 | 1020.0 |
| 20260903193427 | 81 | 81 | 0.0 | 0.0 | 0.00 | 0.00 | 0.00 | 72 | 1020.0 |
| 20260903192927 | 81 | 89 | 0.0 | 0.0 | 0.00 | 0.00 | 0.00 | 72 | 1020.0 |
| 20260903192433 | 81 | 82 | 0.0 | 0.0 | 0.00 | 0.00 | 0.00 | 72 | 1020.0 |
| 20260903191927 | 81 | 83 | 0.0 | 0.0 | 0.00 | 0.00 | 0.00 | 73 | 1019.9 |
| 20260903191427 | 81 | 81 | 0.0 | 0.0 | 0.00 | 0.00 | 0.00 | 72 | 1019.9 |
| 20260903190927 | 81 | 126 | 0.0 | 0.0 | 0.00 | 0.00 | 0.00 | 72 | 1019.9 |
| 20260903190430 | 81 | 89 | 0.0 | 0.0 | 0.00 | 0.00 | 0.00 | 73 | 1019.8 |
| 20260903185933 | 81 | 114 | 0.0 | 0.0 | 0.00 | 0.00 | 0.00 | 73 | 1019.8 |
| 20260903185427 | 81 | 97 | 0.0 | 0.0 | 0.00 | 0.00 | 0.00 | 74 | 1019.7 |
| 20260903184930 | 82 | 226 | 0.0 | 0.0 | 0.00 | 0.00 | 0.00 | 77 | 1019.7 |
| 20260903184427 | 82 | 226 | 0.0 | 0.0 | 0.00 | 0.00 | 0.00 | 77 | 1019.7 |
| 20260903183930 | 82 | 226 | 0.0 | 0.0 | 0.00 | 0.00 | 0.00 | 77 | 1019.7 |
| 20260903183433 | 82 | 226 | 0.0 | 0.0 | 0.00 | 0.00 | 0.00 | 77 | 1019.7 |
| 20260903182927 | 82 | 226 | 0.0 | 0.0 | 0.00 | 0.00 | 0.00 | 77 | 1019.6 |
| 20260903182427 | 82 | 226 | 0.0 | 0.0 | 0.00 | 0.00 | 0.00 | 78 | 1019.5 |
| 20260903181930 | 82 | 226 | 0.0 | 0.0 | 0.00 | 0.00 | 0.00 | 77 | 1019.5 |
| 20260903181427 | 83 | 226 | 0.0 | 0.0 | 0.00 | 0.00 | 0.00 | 77 | 1019.5 |
| 20260903180930 | 83 | 226 | 0.0 | 0.0 | 0.00 | 0.00 | 0.00 | 77 | 1019.6 |
| 20260903180427 | 83 | 226 | 0.0 | 0.0 | 0.00 | 0.00 | 0.00 | 76 | 1019.6 |
| 20260903175930 | 83 | 226 | 0.0 | 0.0 | 0.00 | 0.00 | 0.00 | 76 | 1019.5 |
| 20260903175433 | 84 | 226 | 0.0 | 0.0 | 0.00 | 0.00 | 0.00 | 75 | 1019.5 |
| 20260903174927 | 84 | 226 | 0.0 | 0.0 | 0.00 | 0.00 | 0.00 | 75 | 1019.4 |
| 20260903174430 | 84 | 226 | 0.0 | 0.0 | 0.00 | 0.00 | 0.00 | 74 | 1019.3 |
| 20260903173930 | 84 | 226 | 0.0 | 0.0 | 0.00 | 0.00 | 0.00 | 74 | 1019.4 |
| 20260903173433 | 84 | 226 | 0.0 | 0.0 | 0.00 | 0.00 | 0.00 | 74 | 1019.4 |
| 20260903172927 | 84 | 226 | 0.0 | 0.0 | 0.00 | 0.00 | 0.00 | 74 | 1019.4 |
| 20260903172430 | 84 | 226 | 0.0 | 0.0 | 0.00 | 0.00 | 0.00 | 73 | 1019.4 |
| 20260903171927 | 84 | 226 | 0.0 | 0.0 | 0.00 | 0.00 | 0.00 | 73 | 1019.4 |
| 20260903171433 | 84 | 226 | 0.0 | 0.0 | 0.00 | 0.00 | 0.00 | 73 | 1019.4 |
| 20260903170927 | 84 | 226 | 0.0 | 0.0 | 0.00 | 0.00 | 0.00 | 73 | 1019.4 |
| 20260903170430 | 85 | 224 | 0.0 | 0.0 | 0.00 | 0.00 | 0.00 | 73 | 1019.4 |
| 20260903165927 | 85 | 222 | 0.0 | 0.0 | 0.00 | 0.00 | 0.00 | 72 | 1019.4 |
| 20260903165430 | 85 | 211 | 0.0 | 0.0 | 0.00 | 0.00 | 0.00 | 72 | 1019.4 |
| 20260903164933 | 85 | 212 | 0.0 | 0.0 | 0.00 | 0.00 | 0.00 | 72 | 1019.4 |
| 20260903164427 | 85 | 231 | 0.0 | 0.0 | 0.00 | 0.00 | 0.00 | 72 | 1019.4 |
| 20260903163928 | 85 | 231 | 0.0 | 0.0 | 0.00 | 0.00 | 0.00 | 72 | 1019.4 |
| 20260903163431 | 85 | 209 | 0.0 | 0.0 | 0.00 | 0.00 | 0.00 | 71 | 1019.5 |
| 20260903162927 | 85 | 217 | 0.0 | 0.0 | 0.00 | 0.00 | 0.00 | 70 | 1019.4 |
| 20260903162434 | 85 | 224 | 0.0 | 0.0 | 0.00 | 0.00 | 0.00 | 70 | 1019.4 |
| 20260903161927 | 85 | 224 | 0.0 | 0.0 | 0.00 | 0.00 | 0.00 | 69 | 1019.4 |
| 20260903161428 | 85 | 240 | 0.0 | 0.0 | 0.00 | 0.00 | 0.00 | 70 | 1019.5 |
| 20260903160931 | 85 | 220 | 0.0 | 0.0 | 0.00 | 0.00 | 0.00 | 69 | 1019.4 |
| 20260903160431 | 85 | 223 | 0.0 | 0.0 | 0.00 | 0.00 | 0.00 | 69 | 1019.4 |
| 20260903155927 | 85 | 279 | 0.0 | 0.0 | 0.00 | 0.00 | 0.00 | 70 | 1019.5 |
| 20260903155428 | 85 | 224 | 0.0 | 0.0 | 0.00 | 0.00 | 0.00 | 71 | 1019.4 |
| 20260903154931 | 84 | 226 | 0.0 | 0.0 | 0.00 | 0.00 | 0.00 | 71 | 1019.4 |
| 20260903154431 | 84 | 218 | 0.0 | 0.0 | 0.00 | 0.00 | 0.00 | 72 | 1019.5 |
| 20260903153934 | 84 | 193 | 0.0 | 0.0 | 0.00 | 0.00 | 0.00 | 72 | 1019.5 |
| 20260903153428 | 84 | 220 | 0.0 | 0.0 | 0.00 | 0.00 | 0.00 | 72 | 1019.5 |
| 20260903152928 | 84 | 222 | 0.0 | 0.0 | 0.00 | 0.00 | 0.00 | 73 | 1019.6 |
| 20260903152431 | 84 | 237 | 0.0 | 0.0 | 0.00 | 0.00 | 0.00 | 74 | 1019.6 |
| 20260903151928 | 84 | 220 | 0.0 | 0.0 | 0.00 | 0.00 | 0.00 | 74 | 1019.6 |
| 20260903151431 | 84 | 230 | 0.0 | 0.0 | 0.00 | 0.00 | 0.00 | 73 | 1019.7 |
| 20260903150934 | 84 | 197 | 0.0 | 0.0 | 0.00 | 0.00 | 0.00 | 74 | 1019.5 |
| 20260903150428 | 84 | 210 | 0.0 | 0.0 | 0.00 | 0.00 | 0.00 | 74 | 1019.5 |
| 20260903145928 | 84 | 235 | 0.0 | 0.0 | 0.00 | 0.00 | 0.00 | 74 | 1019.6 |
| 20260903145428 | 84 | 237 | 0.0 | 0.0 | 0.00 | 0.00 | 0.00 | 74 | 1019.6 |
| 20260903144931 | 84 | 228 | 0.0 | 0.0 | 0.00 | 0.00 | 0.00 | 75 | 1019.7 |
| 20260903144428 | 84 | 225 | 0.0 | 0.0 | 0.00 | 0.00 | 0.00 | 74 | 1019.7 |
| 20260903143928 | 84 | 214 | 0.0 | 0.0 | 0.00 | 0.00 | 0.00 | 74 | 1019.8 |
| 20260903143428 | 85 | 190 | 0.0 | 0.0 | 0.00 | 0.00 | 0.00 | 73 | 1019.8 |
| 20260903142934 | 84 | 243 | 0.0 | 0.0 | 0.00 | 0.00 | 0.00 | 74 | 1019.8 |
| 20260903142428 | 84 | 210 | 0.0 | 0.0 | 0.00 | 0.00 | 0.00 | 74 | 1019.9 |
| 20260903141931 | 84 | 266 | 0.0 | 0.0 | 0.00 | 0.00 | 0.00 | 74 | 1019.9 |